Location: Ahausen
(50.4985°N, 8.2722°E)
Time: 16:00:44
(UTC+00:00)

Cosmos 1766 - Pass Details

Date: 18 September 2020
Orbit: 522 x 543 km, 82.5° (Epoch: 22 October)

Event Time Altitude Azimuth Distance (km) Brightness Sun altitude
Exits shadow 19:34:05 33° 59° (ENE) 915 4.1 -19.3°
Drops below altitude 10° 19:36:50 10° 24° (NNE) 1,803 6.0 -19.6°
Sets 19:39:06 0° 17° (NNE) 2,703 7.0 -20.0°
